Location: Alafon
(8.4500°N, 4.2333°E)
Time: 16:17:40
(UTC+00:00)

A-11 Canister half - Pass Details

Date: 11 August 2021
Orbit: 1515 x 1685 km, 47.2° (Epoch: 19 September)

Event Time Altitude Azimuth Distance (km) Brightness Sun altitude
Rises 23:55:21 0° 297° (WNW) 4,932 - -66.2°
Reaches altitude 10° 23:59:09 10° 286° (WNW) 3,942 - -66.1°
Maximum altitude 00:07:17 28° 232° (SW) 2,765 - -65.8°
Drops below altitude 10° 00:15:21 10° 177° (S) 3,882 - -65.4°
Sets 00:19:07 0° 166° (SSE) 4,845 - -65.1°
